Location: Unspecified
(44.4377°N, 88.0525°W)
Time: 20:35:28
(UTC-06:00)

CZ-3 Stage 3 - Visible Passes

Search period start: 20 December 2014 00:00
Search period end: 30 December 2014 00:00
Orbit: 433 x 34798 km, 31.0° (Epoch: 20 December)

Date Brightness Start Highest point End Pass type
(mag) Time Alt. Az. Time Alt. Az. Time Alt. Az.
20 Dec 6.1 05:14:35 22° W 05:24:32 26° WSW 05:33:11 10° S visible
20 Dec 6.6 17:09:26 10° S 01:48:06 61° SSE 02:01:32 10° ESE visible
21 Dec 7.6 15:05:37 10° ESE 21:12:16 57° SE 22:22:33 10° E visible
22 Dec 9.2 15:40:36 10° E 17:22:05 18° E 17:56:35 16° E visible
23 Dec 6.1 05:12:18 22° W 05:19:29 24° WSW 05:28:14 10° S visible
23 Dec 6.5 17:03:03 10° S 01:45:55 56° SSE 01:56:56 10° ESE visible
24 Dec 7.6 14:51:36 10° ESE 21:07:15 58° SE 21:22:15 57° SE visible
25 Dec 9.1 15:23:15 10° E 17:16:07 19° E 17:56:51 16° E visible
26 Dec 6.0 05:09:59 22° WSW 05:14:25 23° WSW 05:23:13 10° SSW visible
26 Dec 6.4 16:56:48 10° S 01:43:34 49° SE 01:52:20 10° ESE visible
27 Dec 7.6 14:37:50 10° ESE 21:02:16 59° SE 21:22:14 58° SE visible
28 Dec 9.0 15:06:16 10° E 17:10:09 21° E 17:56:42 16° E visible
29 Dec 6.1 05:07:31 21° WSW 05:09:18 22° WSW 05:18:10 10° SSW visible
29 Dec 9.7 16:50:42 10° S 21:29:15 45° SW 00:00:00 45° WSW visible
